Terminal Aerodrome Forecast
Issued by NWS Green Bay, WI

Home | Current Version | Previous Version | Text Only | Print | Product List | Glossary Off
Versions: 1 2 3 4 5 6 7 8 9 10 11 12 13 14 15 16 17 18 19 20 21 22 23 24 25 26 27 28 29 30 31 32 33 34 35 36 37

000
FTUS43 KGRB 271600 AAB
TAFGRB
TAF AMD
KGRB 271624Z 2716/2812 30012G18KT P6SM VCSH SCT035 BKN080
      TEMPO 2718/2720 3SM -TSRA BR SCT025 BKN035CB
     FM272200 36014G19KT P6SM SCT015 BKN040
     FM280000 35012KT P6SM BKN100
     FM280300 36011KT P6SM SKC=

USA.gov is the U.S. government's official web portal to all federal, state and local government web resources and services.